Location: Sevilla
(37.3933°N, 5.9839°W)
Time: 13:19:22
(UTC+02:00)

S-56A Canister/Altair - Pass Details

Date: 24 June 2024
Orbit: 638 x 2488 km, 38.9° (Epoch: 14 July)

Event Time Altitude Azimuth Distance (km) Brightness Sun altitude
Rises 00:46:34 0° 268° (W) 4,379 11.7 -24.8°
Reaches altitude 10° 00:49:07 10° 269° (W) 3,619 11.2 -25.0°
Maximum altitude 00:58:58 83° 358° (N) 1,962 9.4 -25.8°
Drops below altitude 10° 01:13:10 10° 88° (E) 5,025 11.5 -26.8°
Sets 01:17:22 0° 89° (E) 6,125 12.0 -27.1°
